Location: Feigenhofen
(48.4939°N, 10.7793°E)
Time: 16:01:48
(UTC+00:00)

Cosmos 2366 rocket - Pass Details

Date: 26 May 2022
Orbit: 955 x 997 km, 82.9° (Epoch: 28 June)

Event Time Altitude Azimuth Distance (km) Brightness Sun altitude
Rises 02:37:01 0° 349° (N) 3,646 7.5 -7.0°
Reaches altitude 10° 02:39:31 10° 349° (NNW) 2,698 6.8 -6.7°
Maximum altitude 02:45:41 79° 264° (W) 982 4.0 -5.9°
Drops below altitude 10° 02:51:50 10° 178° (S) 2,697 6.0 -5.1°
Sets 02:54:20 0° 178° (S) 3,645 6.6 -4.8°
